Location: Newark
(36.1358°N, 115.1208°W)
Time: 01:16:06
(UTC+00:00)

Vanguard 1 Rocket - Pass Details

Date: 20 February 2020
Orbit: 650 x 4226 km, 34.3° (Epoch: 28 March)

Event Time Altitude Azimuth Distance (km) Brightness Sun altitude
Rises 12:29:34 0° 265° (W) 3,669 - -23.5°
Reaches altitude 10° 12:32:33 10° 264° (W) 2,425 - -22.9°
Exits shadow 12:36:50 56° 242° (WSW) 817 6.8 -22.0°
Maximum altitude 12:37:42 73° 180° (S) 703 6.7 -21.9°
Drops below altitude 10° 12:42:03 10° 96° (E) 2,058 10.4 -21.0°
Sets 12:44:22 0° 94° (E) 3,056 11.7 -20.5°
